Weather History for Bishop, CA

Change the Weather History Date:

Friday, August 23, 2013

  Actual Average Record
Temperature  
Mean Temperature 73 °F 74 °F  
Max Temperature 95 °F 95 °F 102 °F (1991)
Min Temperature 50 °F 53 °F 40 °F (1947)
Degree Days  
Heating Degree Days 0 0  
Month to date heating degree days 0 0  
Since 1 June heating degree days 0 20  
Since 1 July heating degree days 0 1  
Cooling Degree Days 8 9  
Month to date cooling degree days 214 248  
Year to date cooling degree days 1085 912  
Since 1 June cooling degree days 999 844  
Growing Degree Days 22 (Base 50)    
Moisture  
Dew Point 25 °F    
Average Humidity 23    
Maximum Humidity 39    
Minimum Humidity 6    
Precipitation  
Precipitation 0.00 in 0.01 in 0.27 in (1982)
Month to date precipitation 0.16 0.10  
Year to date precipitation 1.11 3.34  
Snow  
Snow 0.00 in 0.00 in - ()
Month to date snowfall 0.0 0.0  
Since 1 June snowfall 0.0 0.0  
Since 1 July snowfall 0.0 0.0  
Snow Depth 0.00 in    
Sea Level Pressure  
Sea Level Pressure 29.77 in    
Wind  
Wind Speed 7 mph (South)    
Max Wind Speed 18 mph    
Max Gust Speed 24 mph    
Visibility 10 miles    
Events      
T = Trace of Precipitation, MM = Missing Value Source: NWS Daily Summary

Daily Weather History Graph

Daily Weather History Graph

Search for Another Location

Airport:

Trip Planner

Search our weather history database for the weather conditions in past years. The results will help you decide how hot, cold, wet, or windy it might be!

Date:

Astronomy

Aug. 23, 2013 Rise Set
Actual Time 6:16 AM PDT 7:34 PM PDT
Civil Twilight 5:49 AM PDT 8:01 PM PDT
Nautical Twilight 5:16 AM PDT 8:34 PM PDT
Astronomical Twilight 4:42 AM PDT 9:08 PM PDT
Moon 9:01 PM PDT (8/23) 9:11 AM PDT (8/23)
Length of Visible Light 14h 12m
Length of Day
13h 17m
Waning Gibbous, 91% of the Moon is Illuminated
Aug 23
Waning Gibbous
Aug 28
Last Quarter
Sep 5
New
Sep 12
First Quarter
Sep 19
Full

Hourly Weather History & Observations

Time (PDT) Temp. Dew Point Humidity Pressure Visibility Wind Dir Wind Speed Gust Speed Precip Events Conditions
12:56 AM 61.0 °F 25.0 °F 25% 29.83 in 10.0 mi ESE 4.6 mph - N/A   Clear
1:56 AM 57.0 °F 27.0 °F 32% 29.83 in 10.0 mi NNW 5.8 mph - N/A   Clear
2:56 AM 57.0 °F 27.0 °F 32% 29.83 in 10.0 mi WNW 8.1 mph - N/A   Clear
3:56 AM 51.1 °F 27.0 °F 39% 29.84 in 10.0 mi North 5.8 mph - N/A   Clear
4:56 AM 53.1 °F 27.0 °F 37% 29.84 in 10.0 mi North 4.6 mph - N/A   Clear
5:56 AM 50.0 °F 27.0 °F 41% 29.86 in 10.0 mi Calm Calm - N/A   Clear
6:56 AM 52.0 °F 27.0 °F 38% 29.86 in 10.0 mi NW 4.6 mph - N/A   Clear
7:56 AM 63.0 °F 27.0 °F 26% 29.85 in 10.0 mi NNE 4.6 mph - N/A   Clear
8:56 AM 70.0 °F 26.1 °F 19% 29.86 in 10.0 mi Calm Calm - N/A   Clear
9:56 AM 79.0 °F 24.1 °F 13% 29.84 in 10.0 mi Calm Calm - N/A   Clear
10:56 AM 84.0 °F 27.0 °F 13% 29.82 in 10.0 mi South 10.4 mph - N/A   Clear
11:56 AM 88.0 °F 27.0 °F 11% 29.79 in 10.0 mi SSE 15.0 mph 19.6 mph N/A   Clear
12:56 PM 90.0 °F 26.1 °F 10% 29.77 in 10.0 mi SSE 13.8 mph - N/A   Clear
1:56 PM 93.0 °F 21.9 °F 8% 29.75 in 10.0 mi South 13.8 mph 23.0 mph N/A   Clear
2:56 PM 93.0 °F 17.1 °F 6% 29.72 in 10.0 mi South 8.1 mph 19.6 mph N/A   Clear
3:56 PM 93.9 °F 17.1 °F 6% 29.70 in 10.0 mi SSE 11.5 mph 20.7 mph N/A   Clear
4:56 PM 93.9 °F 18.0 °F 6% 29.67 in 10.0 mi SSE 8.1 mph 18.4 mph N/A   Clear
5:56 PM 93.0 °F 19.9 °F 7% 29.66 in 10.0 mi South 12.7 mph 20.7 mph N/A   Clear
6:56 PM 89.1 °F 19.9 °F 8% 29.67 in 10.0 mi South 9.2 mph - N/A   Clear
7:56 PM 80.1 °F 24.1 °F 13% 29.68 in 10.0 mi SE 8.1 mph - N/A   Clear
8:56 PM 77.0 °F 24.1 °F 14% 29.71 in 10.0 mi West 8.1 mph - N/A   Clear
9:56 PM 75.9 °F 30.0 °F 19% 29.72 in 10.0 mi Calm Calm - N/A   Clear
10:56 PM 69.1 °F 33.1 °F 26% 29.73 in 10.0 mi Variable 4.6 mph - N/A   Clear
11:56 PM 64.0 °F 30.9 °F 29% 29.75 in 10.0 mi South 3.5 mph - N/A   Clear